RYR4JL LGSA-EIDW

Flight info

Callsign RYR4JL
Flight time 4h 19m
Altitude 34000
Route SOKRI UY151 DDM UM619 VARDI DCT DIMIS DCT ADDER DCT SIMBA DCT GASKA DCT MAPOX DCT RAVLO Y70 OTBED L60 PENIL UL28 LELDO M145 BAGSO BAGSO4L
Aircraft B738/M-SDE2E3FGHIRWXY/LB1

Departure

Time 2026-04-30 18:09
Airport Chania International Airport (LGSA)

Arrival

Time 2026-04-30 22:28
Airport Dublin Airport (EIDW)
Time Latitude Longitude Altitude Speed Heading
2026-04-30 17:47 35.53856 24.14108 497 ft 0 kts 22°
2026-04-30 18:00 35.53827 24.14095 491 ft 4 kts 15°
2026-04-30 18:01 35.53775 24.14090 489 ft 4 kts 330°
2026-04-30 18:02 35.53764 24.14101 489 ft 0 kts 292°
2026-04-30 18:05 35.53813 24.13952 493 ft 8 kts 292°
2026-04-30 18:06 35.53781 24.13667 488 ft 13 kts 292°
2026-04-30 18:07 35.53652 24.13497 493 ft 0 kts 112°
2026-04-30 18:08 35.53475 24.14038 494 ft 94 kts 111°
2026-04-30 18:09 35.51648 24.19742 1434 ft 229 kts 112°
2026-04-30 18:10 35.51361 24.27827 3666 ft 274 kts 35°
2026-04-30 18:11 35.58650 24.30103 6762 ft 273 kts
2026-04-30 18:11 35.62779 24.35009 8859 ft 294 kts 52°
2026-04-30 18:12 35.66361 24.41243 10948 ft 300 kts 50°
2026-04-30 18:13 35.69371 24.44345 12558 ft 270 kts
2026-04-30 18:13 35.73004 24.41301 14140 ft 261 kts 296°
2026-04-30 18:14 35.75828 24.37309 15209 ft 274 kts 304°
2026-04-30 18:15 35.78658 24.30407 15608 ft 329 kts 292°
2026-04-30 18:15 35.80505 24.21686 16159 ft 373 kts 277°
2026-04-30 18:16 35.80662 24.15257 17254 ft 378 kts 267°
2026-04-30 18:16 35.79845 24.08805 18311 ft 386 kts 256°
2026-04-30 18:17 35.79069 24.05628 18778 ft 388 kts 255°
2026-04-30 18:17 35.78715 24.02355 19217 ft 388 kts 276°
2026-04-30 18:17 35.81026 23.96421 20189 ft 394 kts 309°
2026-04-30 18:18 35.83005 23.94060 20611 ft 398 kts 316°
2026-04-30 18:18 35.85097 23.91802 21037 ft 401 kts 317°
2026-04-30 18:18 35.87219 23.89546 21469 ft 404 kts 317°
2026-04-30 18:18 35.89351 23.87275 21902 ft 406 kts 317°
2026-04-30 18:19 35.91487 23.84977 22325 ft 408 kts 316°
2026-04-30 18:19 35.93629 23.82654 22727 ft 410 kts 316°
2026-04-30 18:19 35.95772 23.80315 23135 ft 413 kts 316°
2026-04-30 18:19 35.97896 23.77988 23528 ft 415 kts 316°
2026-04-30 18:20 36.00056 23.75616 23870 ft 417 kts 316°
2026-04-30 18:20 36.02223 23.73234 24240 ft 418 kts 316°
2026-04-30 18:20 36.04396 23.70843 24591 ft 419 kts 316°
2026-04-30 18:20 36.06575 23.68445 24917 ft 421 kts 316°
2026-04-30 18:21 36.08763 23.66033 25233 ft 422 kts 316°
2026-04-30 18:21 36.10961 23.63606 25551 ft 424 kts 316°
2026-04-30 18:21 36.13166 23.61171 25861 ft 426 kts 315°
2026-04-30 18:21 36.15380 23.58726 26178 ft 427 kts 315°
2026-04-30 18:22 36.17590 23.56286 26600 ft 425 kts 315°
2026-04-30 18:22 36.21972 23.51441 27611 ft 419 kts 315°
2026-04-30 18:22 36.24274 23.49241 28072 ft 420 kts 325°
2026-04-30 18:23 36.26875 23.47568 28501 ft 423 kts 333°
2026-04-30 18:23 36.28740 23.46683 28680 ft 427 kts 338°
2026-04-30 18:23 36.31674 23.45824 28730 ft 438 kts 346°
2026-04-30 18:23 36.34670 23.45211 28814 ft 445 kts 347°
2026-04-30 18:24 36.40867 23.44024 29036 ft 455 kts 347°
2026-04-30 18:24 36.43998 23.43412 29325 ft 455 kts 347°
2026-04-30 18:24 36.47116 23.42788 29744 ft 453 kts 347°
2026-04-30 18:25 36.50213 23.42157 30168 ft 450 kts 346°
2026-04-30 18:25 36.56378 23.40880 30714 ft 449 kts 347°
2026-04-30 18:25 36.59461 23.40239 30983 ft 449 kts 346°
2026-04-30 18:26 36.65598 23.38964 31622 ft 445 kts 346°
2026-04-30 18:26 36.68653 23.38329 31905 ft 445 kts 346°
2026-04-30 18:26 36.71706 23.37694 32170 ft 444 kts 346°
2026-04-30 18:27 36.77798 23.36427 32670 ft 444 kts 346°
2026-04-30 18:27 36.80846 23.35790 32854 ft 445 kts 346°
2026-04-30 18:28 36.86945 23.34518 33406 ft 442 kts 346°
2026-04-30 18:28 36.89974 23.33886 33696 ft 441 kts 346°
2026-04-30 18:28 36.95986 23.32630 33962 ft 443 kts 345°
2026-04-30 18:29 37.08129 23.30093 33971 ft 439 kts 346°
2026-04-30 18:30 37.20111 23.27603 33978 ft 434 kts 345°
2026-04-30 18:31 37.29046 23.25693 33993 ft 434 kts 346°
2026-04-30 18:32 37.37994 23.23789 33984 ft 435 kts 346°
2026-04-30 18:33 37.46833 23.21335 33992 ft 430 kts 333°
2026-04-30 18:33 37.51945 23.17554 33986 ft 425 kts 318°
2026-04-30 18:33 37.54198 23.15215 33987 ft 426 kts 317°
2026-04-30 18:34 37.61003 23.08005 33985 ft 427 kts 317°
2026-04-30 18:35 37.65573 23.03198 33989 ft 428 kts 317°
2026-04-30 18:35 37.70161 22.98396 33982 ft 428 kts 318°
2026-04-30 18:36 37.77056 22.91179 33993 ft 429 kts 317°
2026-04-30 18:37 37.83947 22.83947 34004 ft 429 kts 317°
2026-04-30 18:37 37.88532 22.79124 34000 ft 428 kts 317°
2026-04-30 18:38 37.93103 22.74308 33998 ft 426 kts 317°
2026-04-30 18:38 37.97617 22.69546 34007 ft 424 kts 317°
2026-04-30 18:39 38.02126 22.64780 34012 ft 421 kts 317°
2026-04-30 18:39 38.06614 22.60027 34005 ft 419 kts 317°
2026-04-30 18:40 38.11083 22.55286 34004 ft 418 kts 317°
2026-04-30 18:40 38.15536 22.50556 34010 ft 417 kts 317°
2026-04-30 18:41 38.19977 22.45829 34015 ft 416 kts 317°
2026-04-30 18:41 38.24418 22.41096 34021 ft 417 kts 317°
2026-04-30 18:42 38.28859 22.36354 34034 ft 417 kts 317°
2026-04-30 18:42 38.35529 22.29220 34023 ft 417 kts 316°
2026-04-30 18:45 38.59955 22.02939 34041 ft 418 kts 316°
2026-04-30 18:46 38.64398 21.98134 34035 ft 418 kts 316°
2026-04-30 18:46 38.68861 21.93421 34044 ft 420 kts 319°
2026-04-30 18:47 38.73560 21.88960 34046 ft 421 kts 320°
2026-04-30 18:47 38.78295 21.84552 34045 ft 421 kts 320°
2026-04-30 18:48 38.83015 21.80117 34060 ft 420 kts 320°
2026-04-30 18:48 38.87711 21.75669 34057 ft 419 kts 320°
2026-04-30 18:49 38.92382 21.71228 34049 ft 417 kts 320°
2026-04-30 18:49 38.97033 21.66795 34022 ft 416 kts 320°
2026-04-30 18:50 39.01660 21.62378 34053 ft 413 kts 320°
2026-04-30 18:50 39.06273 21.57967 34048 ft 413 kts 320°
2026-04-30 18:51 39.10851 21.53584 34077 ft 413 kts 319°
2026-04-30 18:51 39.15470 21.49152 34061 ft 414 kts 319°
2026-04-30 18:52 39.20098 21.44705 34054 ft 415 kts 319°
2026-04-30 18:52 39.24729 21.40249 34052 ft 415 kts 319°
2026-04-30 18:53 39.29362 21.35783 34054 ft 416 kts 319°
2026-04-30 18:53 39.33994 21.31310 34054 ft 416 kts 319°
2026-04-30 18:54 39.38630 21.26825 34069 ft 416 kts 319°
2026-04-30 18:54 39.43270 21.22329 34067 ft 417 kts 319°
2026-04-30 18:55 39.47911 21.17825 34060 ft 417 kts 319°
2026-04-30 18:55 39.54874 21.11053 34059 ft 416 kts 319°
2026-04-30 18:56 39.61743 21.04357 34095 ft 413 kts 318°
2026-04-30 18:57 39.68602 20.97651 34081 ft 409 kts 318°
2026-04-30 18:57 39.73131 20.93215 34078 ft 407 kts 318°
2026-04-30 18:58 39.79892 20.86576 34077 ft 406 kts 318°
2026-04-30 18:59 39.86656 20.79917 34117 ft 407 kts 318°
2026-04-30 19:00 39.95708 20.70982 34071 ft 407 kts 318°
2026-04-30 19:01 40.04675 20.62105 34060 ft 403 kts 317°
2026-04-30 19:02 40.11912 20.56470 34064 ft 407 kts 328°
2026-04-30 19:03 40.22134 20.49998 34093 ft 410 kts 328°
2026-04-30 19:04 40.32393 20.43412 34094 ft 410 kts 327°
2026-04-30 19:05 40.42606 20.36826 34114 ft 411 kts 327°
2026-04-30 19:06 40.52874 20.30149 34114 ft 410 kts 324°
2026-04-30 19:06 40.60138 20.24297 34157 ft 408 kts 322°
2026-04-30 19:07 40.67374 20.18373 34110 ft 408 kts 322°
2026-04-30 19:08 40.77041 20.10492 34110 ft 408 kts 322°
2026-04-30 19:09 40.84254 20.04603 34124 ft 405 kts 321°
2026-04-30 19:09 40.89044 20.00685 34103 ft 404 kts 321°
2026-04-30 19:10 40.98525 19.92909 34097 ft 400 kts 321°
2026-04-30 19:11 41.05608 19.87081 34109 ft 399 kts 321°
2026-04-30 19:12 41.10326 19.83191 34103 ft 400 kts 321°
2026-04-30 19:12 41.14290 19.79916 34109 ft 401 kts 321°
2026-04-30 19:13 41.23752 19.72084 34110 ft 403 kts 321°
2026-04-30 19:14 41.28512 19.68134 34100 ft 404 kts 321°
2026-04-30 19:14 41.33277 19.64174 34123 ft 405 kts 322°
2026-04-30 19:15 41.38055 19.60194 34113 ft 406 kts 322°
2026-04-30 19:15 41.45237 19.54200 34118 ft 406 kts 321°
2026-04-30 19:16 41.50024 19.50197 34117 ft 406 kts 321°
2026-04-30 19:17 41.57158 19.44218 34133 ft 405 kts 322°
2026-04-30 19:17 41.64224 19.38278 34138 ft 405 kts 322°
2026-04-30 19:18 41.71367 19.32258 34144 ft 404 kts 322°
2026-04-30 19:19 41.76126 19.28239 34147 ft 404 kts 322°
2026-04-30 19:19 41.83262 19.22197 34171 ft 405 kts 322°
2026-04-30 19:20 41.88035 19.18148 34162 ft 406 kts 322°
2026-04-30 19:21 41.95209 19.12048 34162 ft 408 kts 322°
2026-04-30 19:22 42.04779 19.03885 34175 ft 410 kts 322°
2026-04-30 19:23 42.19286 18.91455 34169 ft 413 kts 322°
2026-04-30 19:24 42.26553 18.85203 34188 ft 413 kts 322°
2026-04-30 19:25 42.38711 18.74702 34186 ft 416 kts 323°
2026-04-30 19:26 42.48465 18.66244 34188 ft 416 kts 323°
2026-04-30 19:27 42.55744 18.59912 34189 ft 416 kts 323°
2026-04-30 19:28 42.63041 18.53545 34171 ft 415 kts 323°
2026-04-30 19:29 42.72765 18.45031 34196 ft 416 kts 323°
2026-04-30 19:30 42.82493 18.36483 34194 ft 416 kts 323°
2026-04-30 19:31 42.92195 18.27925 34210 ft 415 kts 323°
2026-04-30 19:31 42.99470 18.21485 34226 ft 416 kts 324°
2026-04-30 19:32 43.04337 18.17168 34226 ft 417 kts 324°
2026-04-30 19:32 43.09212 18.12834 34225 ft 419 kts 324°
2026-04-30 19:33 43.14101 18.08480 34232 ft 419 kts 323°
2026-04-30 19:33 43.18998 18.04111 34231 ft 421 kts 324°
2026-04-30 19:34 43.23918 17.99712 34217 ft 423 kts 324°
2026-04-30 19:35 43.31316 17.93082 34216 ft 424 kts 324°
2026-04-30 19:35 43.36260 17.88639 34214 ft 425 kts 324°
2026-04-30 19:36 43.41208 17.84186 34204 ft 425 kts 324°
2026-04-30 19:36 43.48596 17.77519 34266 ft 423 kts 324°
2026-04-30 19:37 43.53471 17.73109 34259 ft 422 kts 324°
2026-04-30 19:37 43.58362 17.68675 34267 ft 419 kts 324°
2026-04-30 19:38 43.63229 17.64254 34304 ft 419 kts 324°
2026-04-30 19:38 43.68116 17.59805 34292 ft 422 kts 324°
2026-04-30 19:39 43.73026 17.55328 34297 ft 423 kts 324°
2026-04-30 19:39 43.77956 17.50824 34300 ft 425 kts 324°
2026-04-30 19:40 43.82898 17.46300 34309 ft 426 kts 324°
2026-04-30 19:40 43.87814 17.41790 34340 ft 427 kts 324°
2026-04-30 19:41 43.92781 17.37224 34324 ft 428 kts 324°
2026-04-30 19:41 43.97747 17.32650 34334 ft 429 kts 324°
2026-04-30 19:42 44.02718 17.28063 34336 ft 429 kts 324°
2026-04-30 19:42 44.07680 17.23472 34352 ft 429 kts 325°
2026-04-30 19:43 44.12650 17.18867 34372 ft 428 kts 325°
2026-04-30 19:44 44.20093 17.11951 34365 ft 429 kts 325°
2026-04-30 19:44 44.25059 17.07325 34362 ft 429 kts 325°
2026-04-30 19:45 44.29994 17.02718 34366 ft 430 kts 326°
2026-04-30 19:45 44.34965 16.98068 34357 ft 430 kts 326°
2026-04-30 19:46 44.39935 16.93410 34346 ft 431 kts 326°
2026-04-30 19:46 44.44912 16.88735 34350 ft 431 kts 326°
2026-04-30 19:47 44.49894 16.84045 34350 ft 432 kts 326°
2026-04-30 19:47 44.54879 16.79343 34359 ft 432 kts 326°
2026-04-30 19:48 44.59866 16.74628 34347 ft 432 kts 326°
2026-04-30 19:48 44.64852 16.69907 34349 ft 433 kts 326°
2026-04-30 19:49 44.69839 16.65173 34350 ft 433 kts 326°
2026-04-30 19:49 44.77325 16.58048 34356 ft 433 kts 326°
2026-04-30 19:50 44.82316 16.53285 34336 ft 433 kts 326°
2026-04-30 19:50 44.87304 16.48515 34358 ft 433 kts 326°
2026-04-30 19:51 44.92288 16.43738 34352 ft 433 kts 326°
2026-04-30 19:51 44.97244 16.38979 34366 ft 433 kts 326°
2026-04-30 19:52 45.02229 16.34181 34360 ft 434 kts 327°
2026-04-30 19:52 45.07214 16.29373 34351 ft 434 kts 327°
2026-04-30 19:53 45.12199 16.24554 34372 ft 434 kts 327°
2026-04-30 19:53 45.17184 16.19726 34359 ft 434 kts 327°
2026-04-30 19:54 45.22173 16.14883 34386 ft 434 kts 327°
2026-04-30 19:54 45.27161 16.10030 34367 ft 435 kts 327°
2026-04-30 19:55 45.32051 16.05263 34364 ft 435 kts 327°
2026-04-30 19:55 45.37037 16.00391 34366 ft 435 kts 327°
2026-04-30 19:56 45.42027 15.95505 34376 ft 435 kts 327°
2026-04-30 19:56 45.47015 15.90609 34377 ft 435 kts 328°
2026-04-30 19:57 45.52000 15.85706 34374 ft 436 kts 328°
2026-04-30 19:57 45.56987 15.80792 34367 ft 436 kts 328°
2026-04-30 19:58 45.61961 15.75878 34371 ft 435 kts 328°
2026-04-30 19:58 45.66940 15.70949 34377 ft 435 kts 328°
2026-04-30 19:59 45.71878 15.66049 34391 ft 435 kts 328°
2026-04-30 20:00 45.79330 15.58636 34403 ft 435 kts 328°
2026-04-30 20:00 45.84300 15.53677 34394 ft 436 kts 328°
2026-04-30 20:01 45.91758 15.46216 34407 ft 436 kts 328°
2026-04-30 20:01 45.96732 15.41226 34407 ft 436 kts 328°
2026-04-30 20:02 46.03351 15.34569 34391 ft 436 kts 328°
2026-04-30 20:03 46.10837 15.27015 34389 ft 436 kts 328°
2026-04-30 20:03 46.15803 15.21989 34373 ft 436 kts 328°
2026-04-30 20:04 46.20768 15.16955 34386 ft 436 kts 329°
2026-04-30 20:05 46.28212 15.09384 34377 ft 436 kts 328°
2026-04-30 20:05 46.35631 15.01812 34387 ft 434 kts 328°
2026-04-30 20:06 46.40567 14.96761 34385 ft 433 kts 329°
2026-04-30 20:06 46.45460 14.91743 34384 ft 434 kts 329°
2026-04-30 20:07 46.50384 14.86682 34379 ft 434 kts 329°
2026-04-30 20:08 46.57771 14.79067 34378 ft 434 kts 329°
2026-04-30 20:08 46.62694 14.73977 34377 ft 434 kts 329°
2026-04-30 20:09 46.67609 14.68884 34371 ft 433 kts 330°
2026-04-30 20:09 46.74959 14.61246 34366 ft 432 kts 330°
2026-04-30 20:10 46.82292 14.53600 34378 ft 432 kts 330°
2026-04-30 20:11 46.89626 14.45926 34349 ft 432 kts 330°
2026-04-30 20:11 46.94500 14.40812 34368 ft 430 kts 331°
2026-04-30 20:12 47.01803 14.33128 34351 ft 431 kts 331°
2026-04-30 20:13 47.06666 14.27996 34363 ft 430 kts 331°
2026-04-30 20:13 47.11499 14.22885 34369 ft 431 kts 331°
2026-04-30 20:14 47.16368 14.17724 34363 ft 432 kts 331°
2026-04-30 20:14 47.21243 14.12545 34349 ft 431 kts 331°
2026-04-30 20:15 47.26086 14.07382 34366 ft 428 kts 331°
2026-04-30 20:15 47.30895 14.02249 34382 ft 427 kts 331°
2026-04-30 20:16 47.35711 13.97098 34365 ft 429 kts 331°
2026-04-30 20:16 47.40542 13.91922 34385 ft 430 kts 331°
2026-04-30 20:17 47.45395 13.86706 34332 ft 432 kts 332°
2026-04-30 20:17 47.50260 13.81462 34372 ft 433 kts 332°
2026-04-30 20:18 47.55130 13.76202 34370 ft 434 kts 332°
2026-04-30 20:18 47.60002 13.70927 34386 ft 433 kts 332°
2026-04-30 20:19 47.64871 13.65644 34359 ft 433 kts 332°
2026-04-30 20:19 47.69688 13.60402 34389 ft 432 kts 332°
2026-04-30 20:20 47.74532 13.55122 34333 ft 431 kts 332°
2026-04-30 20:20 47.79348 13.49858 34376 ft 430 kts 332°
2026-04-30 20:21 47.84157 13.44593 34376 ft 429 kts 332°
2026-04-30 20:21 47.88958 13.39323 34367 ft 429 kts 333°
2026-04-30 20:22 47.93755 13.34044 34380 ft 428 kts 333°
2026-04-30 20:22 47.98540 13.28765 34370 ft 428 kts 333°
2026-04-30 20:23 48.03317 13.23484 34371 ft 427 kts 333°
2026-04-30 20:23 48.08089 13.18197 34376 ft 427 kts 333°
2026-04-30 20:24 48.12869 13.12890 34376 ft 428 kts 332°
2026-04-30 20:24 48.17661 13.07557 34379 ft 430 kts 332°
2026-04-30 20:25 48.24862 12.99460 34380 ft 434 kts 331°
2026-04-30 20:26 48.31900 12.90827 34374 ft 436 kts 329°
2026-04-30 20:26 48.38930 12.82121 34380 ft 437 kts 329°
2026-04-30 20:27 48.48317 12.70556 34385 ft 438 kts 329°
2026-04-30 20:28 48.57735 12.58911 34388 ft 437 kts 329°
2026-04-30 20:30 48.69464 12.44323 34392 ft 435 kts 329°
2026-04-30 20:31 48.83461 12.26796 34390 ft 434 kts 328°
2026-04-30 20:32 48.95100 12.12125 34399 ft 436 kts 328°
2026-04-30 20:33 49.02076 12.03286 34399 ft 438 kts 328°
2026-04-30 20:34 49.09103 11.94347 34391 ft 439 kts 327°
2026-04-30 20:35 49.16144 11.85358 34397 ft 440 kts 327°
2026-04-30 20:35 49.23195 11.76319 34397 ft 442 kts 327°
2026-04-30 20:36 49.27898 11.70271 34407 ft 442 kts 327°
2026-04-30 20:37 49.34951 11.61173 34381 ft 442 kts 326°
2026-04-30 20:37 49.39651 11.55089 34381 ft 441 kts 326°
2026-04-30 20:38 49.44335 11.49010 34388 ft 441 kts 326°
2026-04-30 20:38 49.49012 11.42927 34395 ft 440 kts 326°
2026-04-30 20:39 49.56005 11.33798 34389 ft 439 kts 326°
2026-04-30 20:40 49.62967 11.24676 34390 ft 437 kts 325°
2026-04-30 20:40 49.67597 11.18592 34384 ft 437 kts 325°
2026-04-30 20:41 49.74517 11.09467 34406 ft 438 kts 325°
2026-04-30 20:41 49.79151 11.03338 34387 ft 439 kts 325°
2026-04-30 20:42 49.83792 10.97182 34397 ft 440 kts 325°
2026-04-30 20:43 49.90762 10.87906 34392 ft 440 kts 324°
2026-04-30 20:43 49.95407 10.81703 34396 ft 441 kts 324°
2026-04-30 20:44 50.02410 10.72322 34403 ft 442 kts 324°
2026-04-30 20:45 50.11674 10.59853 34403 ft 442 kts 324°
2026-04-30 20:45 50.16320 10.53575 34399 ft 442 kts 323°
2026-04-30 20:46 50.25603 10.40985 34402 ft 442 kts 323°
2026-04-30 20:47 50.31775 10.32577 34408 ft 442 kts 323°
2026-04-30 20:48 50.38400 10.22444 34418 ft 447 kts 315°
2026-04-30 20:48 50.42400 10.14960 34399 ft 448 kts 313°
2026-04-30 20:49 50.46395 10.07466 34409 ft 447 kts 314°
2026-04-30 20:50 50.52432 9.96297 34403 ft 447 kts 314°
2026-04-30 20:50 50.56467 9.88850 34405 ft 447 kts 314°
2026-04-30 20:51 50.60500 9.81388 34386 ft 447 kts 314°
2026-04-30 20:51 50.66535 9.70176 34399 ft 447 kts 313°
2026-04-30 20:52 50.70529 9.62727 34406 ft 447 kts 313°
2026-04-30 20:53 50.76550 9.51457 34398 ft 448 kts 313°
2026-04-30 20:53 50.80563 9.43918 34398 ft 448 kts 313°
2026-04-30 20:54 50.86569 9.32595 34418 ft 448 kts 313°
2026-04-30 20:55 50.92576 9.21218 34415 ft 449 kts 313°
2026-04-30 20:55 50.96578 9.13611 34423 ft 450 kts 313°
2026-04-30 20:56 51.02585 9.02154 34417 ft 450 kts 312°
2026-04-30 20:57 51.08559 8.90710 34409 ft 450 kts 312°
2026-04-30 20:57 51.12576 8.82980 34408 ft 450 kts 311°
2026-04-30 20:58 51.17481 8.70215 34405 ft 454 kts 301°
2026-04-30 20:58 51.20483 8.61351 34391 ft 454 kts 301°
2026-04-30 20:59 51.25031 8.48116 34394 ft 453 kts 301°
2026-04-30 21:00 51.31128 8.30503 34397 ft 453 kts 302°
2026-04-30 21:01 51.35690 8.17263 34398 ft 453 kts 301°
2026-04-30 21:02 51.40237 8.03983 34383 ft 454 kts 300°
2026-04-30 21:02 51.43263 7.95107 34380 ft 454 kts 300°
2026-04-30 21:03 51.46267 7.86263 34376 ft 455 kts 300°
2026-04-30 21:03 51.49282 7.77355 34375 ft 455 kts 300°
2026-04-30 21:04 51.52294 7.68425 34367 ft 455 kts 300°
2026-04-30 21:04 51.56801 7.55002 34373 ft 455 kts 300°
2026-04-30 21:05 51.59798 7.46037 34381 ft 455 kts 300°
2026-04-30 21:05 51.62786 7.37065 34379 ft 455 kts 300°
2026-04-30 21:06 51.65767 7.28084 34374 ft 455 kts 300°
2026-04-30 21:06 51.68737 7.19098 34371 ft 454 kts 299°
2026-04-30 21:07 51.71702 7.10102 34364 ft 454 kts 299°
2026-04-30 21:07 51.74659 7.01095 34370 ft 454 kts 299°
2026-04-30 21:08 51.77609 6.92078 34370 ft 454 kts 299°
2026-04-30 21:08 51.80553 6.83042 34373 ft 454 kts 299°
2026-04-30 21:09 51.83493 6.73989 34373 ft 455 kts 298°
2026-04-30 21:09 51.86427 6.64919 34364 ft 455 kts 299°
2026-04-30 21:10 51.89356 6.55834 34356 ft 456 kts 298°
2026-04-30 21:10 51.92272 6.46721 34371 ft 455 kts 298°
2026-04-30 21:11 51.95176 6.37666 34352 ft 455 kts 298°
2026-04-30 21:11 51.98089 6.28534 34360 ft 456 kts 298°
2026-04-30 21:12 52.00994 6.19384 34357 ft 456 kts 298°
2026-04-30 21:12 52.03898 6.10209 34358 ft 457 kts 298°
2026-04-30 21:13 52.06798 6.01002 34346 ft 458 kts 297°
2026-04-30 21:13 52.09700 5.91775 34343 ft 458 kts 297°
2026-04-30 21:14 52.12595 5.82524 34353 ft 459 kts 297°
2026-04-30 21:14 52.15486 5.73241 34345 ft 460 kts 297°
2026-04-30 21:15 52.18378 5.63929 34353 ft 461 kts 297°
2026-04-30 21:15 52.21259 5.54602 34351 ft 460 kts 297°
2026-04-30 21:16 52.24138 5.45274 34342 ft 460 kts 297°
2026-04-30 21:16 52.26979 5.36014 34344 ft 459 kts 296°
2026-04-30 21:17 52.29828 5.26690 34330 ft 458 kts 296°
2026-04-30 21:17 52.32666 5.17368 34343 ft 458 kts 296°
2026-04-30 21:18 52.35495 5.08043 34309 ft 458 kts 296°
2026-04-30 21:18 52.38320 4.98696 34328 ft 459 kts 296°
2026-04-30 21:19 52.41143 4.89314 34330 ft 460 kts 296°
2026-04-30 21:19 52.43970 4.79887 34326 ft 461 kts 296°
2026-04-30 21:20 52.46793 4.70435 34327 ft 462 kts 295°
2026-04-30 21:20 52.49610 4.60964 34322 ft 461 kts 295°
2026-04-30 21:21 52.52412 4.51506 34326 ft 460 kts 295°
2026-04-30 21:22 52.56594 4.37321 34316 ft 460 kts 295°
2026-04-30 21:23 52.62132 4.18408 34323 ft 459 kts 295°
2026-04-30 21:23 52.66240 4.04278 34322 ft 458 kts 295°
2026-04-30 21:24 52.68980 3.94803 34314 ft 460 kts 294°
2026-04-30 21:24 52.71737 3.85242 34316 ft 462 kts 294°
2026-04-30 21:25 52.75863 3.70836 34312 ft 464 kts 294°
2026-04-30 21:26 52.79986 3.56375 34308 ft 463 kts 294°
2026-04-30 21:27 52.84087 3.41906 34277 ft 463 kts 293°
2026-04-30 21:27 52.86807 3.32253 34290 ft 462 kts 294°
2026-04-30 21:28 52.90868 3.17763 34290 ft 463 kts 292°
2026-04-30 21:28 52.92780 3.07652 34295 ft 460 kts 280°
2026-04-30 21:29 52.93436 3.02469 34321 ft 460 kts 279°
2026-04-30 21:30 52.96719 2.76444 34314 ft 462 kts 279°
2026-04-30 21:31 53.00066 2.50412 34302 ft 462 kts 279°
2026-04-30 21:32 53.02047 2.34750 34301 ft 462 kts 279°
2026-04-30 21:32 53.03356 2.24311 34302 ft 461 kts 279°
2026-04-30 21:33 53.05303 2.08650 34296 ft 461 kts 279°
2026-04-30 21:34 53.06584 1.98207 34299 ft 461 kts 278°
2026-04-30 21:34 53.08493 1.82546 34291 ft 461 kts 278°
2026-04-30 21:35 53.09755 1.72104 34290 ft 460 kts 278°
2026-04-30 21:35 53.10798 1.63424 34292 ft 460 kts 278°
2026-04-30 21:36 53.12043 1.52977 34286 ft 460 kts 278°
2026-04-30 21:37 53.14507 1.32056 34286 ft 460 kts 278°
2026-04-30 21:37 53.15726 1.21583 34286 ft 460 kts 278°
2026-04-30 21:38 53.16936 1.11101 34282 ft 460 kts 277°
2026-04-30 21:38 53.18135 1.00624 34299 ft 460 kts 277°
2026-04-30 21:39 53.19319 0.90204 34283 ft 461 kts 277°
2026-04-30 21:39 53.20503 0.79694 34274 ft 461 kts 277°
2026-04-30 21:40 53.21680 0.69179 34276 ft 461 kts 277°
2026-04-30 21:40 53.22847 0.58657 34269 ft 461 kts 277°
2026-04-30 21:41 53.24005 0.48125 34284 ft 462 kts 276°
2026-04-30 21:41 53.25152 0.37572 34266 ft 462 kts 276°
2026-04-30 21:42 53.26280 0.27009 34262 ft 462 kts 276°
2026-04-30 21:42 53.27402 0.16439 34264 ft 462 kts 276°
2026-04-30 21:43 53.28518 0.05875 34268 ft 462 kts 276°
2026-04-30 21:43 53.29618 -0.04695 34264 ft 462 kts 275°
2026-04-30 21:44 53.30707 -0.15274 34255 ft 461 kts 275°
2026-04-30 21:44 53.31791 -0.25849 34253 ft 461 kts 275°
2026-04-30 21:45 53.32866 -0.36412 34248 ft 460 kts 275°
2026-04-30 21:45 53.33929 -0.46970 34245 ft 460 kts 275°
2026-04-30 21:46 53.34985 -0.57455 34249 ft 459 kts 275°
2026-04-30 21:46 53.36034 -0.67998 34248 ft 459 kts 275°
2026-04-30 21:47 53.37055 -0.78536 34251 ft 459 kts 275°
2026-04-30 21:47 53.38070 -0.89081 34255 ft 459 kts 275°
2026-04-30 21:48 53.39097 -0.99629 34254 ft 459 kts 275°
2026-04-30 21:48 53.40135 -1.10185 34263 ft 459 kts 274°
2026-04-30 21:49 53.41137 -1.20754 34256 ft 459 kts 274°
2026-04-30 21:49 53.42109 -1.31335 34256 ft 459 kts 274°
2026-04-30 21:50 53.43099 -1.41919 34254 ft 459 kts 274°
2026-04-30 21:50 53.44088 -1.52509 34252 ft 459 kts 274°
2026-04-30 21:51 53.45056 -1.63102 34255 ft 460 kts 274°
2026-04-30 21:51 53.46016 -1.73707 34247 ft 459 kts 274°
2026-04-30 21:52 53.46964 -1.84309 34247 ft 459 kts 274°
2026-04-30 21:52 53.47879 -1.94838 34225 ft 459 kts 274°
2026-04-30 21:53 53.48792 -2.05438 34231 ft 458 kts 274°
2026-04-30 21:53 53.49698 -2.16023 34229 ft 458 kts 274°
2026-04-30 21:54 53.50593 -2.26617 34224 ft 457 kts 274°
2026-04-30 21:54 53.51482 -2.37196 34215 ft 456 kts 274°
2026-04-30 21:55 53.52360 -2.47746 34213 ft 456 kts 274°
2026-04-30 21:55 53.53230 -2.58290 34211 ft 455 kts 274°
2026-04-30 21:56 53.54088 -2.68811 34216 ft 454 kts 275°
2026-04-30 21:56 53.54929 -2.79236 34201 ft 452 kts 274°
2026-04-30 21:57 53.55764 -2.89707 34199 ft 451 kts 274°
2026-04-30 21:57 53.56588 -3.00167 34191 ft 450 kts 274°
2026-04-30 21:58 53.57402 -3.10603 34193 ft 450 kts 274°
2026-04-30 21:58 53.58206 -3.21045 34186 ft 450 kts 274°
2026-04-30 21:59 53.59003 -3.31504 34191 ft 451 kts 274°
2026-04-30 22:00 53.60184 -3.47215 34185 ft 452 kts 274°
2026-04-30 22:00 53.60966 -3.57772 33568 ft 458 kts 274°
2026-04-30 22:00 53.61360 -3.63083 32963 ft 456 kts 275°
2026-04-30 22:01 53.62007 -3.68332 32334 ft 460 kts 284°
2026-04-30 22:01 53.63140 -3.73356 31943 ft 457 kts 289°
2026-04-30 22:01 53.64372 -3.78283 31442 ft 454 kts 289°
2026-04-30 22:01 53.65591 -3.83172 30993 ft 450 kts 289°
2026-04-30 22:02 53.66774 -3.88038 30538 ft 447 kts 288°
2026-04-30 22:02 53.67930 -3.92889 30069 ft 444 kts 288°
2026-04-30 22:02 53.69076 -3.97713 29540 ft 441 kts 288°
2026-04-30 22:02 53.70230 -4.02478 29054 ft 437 kts 288°
2026-04-30 22:03 53.71294 -4.07238 28576 ft 430 kts 282°
2026-04-30 22:03 53.71912 -4.12113 28122 ft 420 kts 271°
2026-04-30 22:03 53.72105 -4.16993 27683 ft 414 kts 268°
2026-04-30 22:03 53.72243 -4.21834 27220 ft 411 kts 268°
2026-04-30 22:04 53.72384 -4.26642 26769 ft 409 kts 268°
2026-04-30 22:04 53.72537 -4.31357 26339 ft 406 kts 268°
2026-04-30 22:04 53.72871 -4.40820 25476 ft 401 kts 268°
2026-04-30 22:05 53.73036 -4.45512 25035 ft 399 kts 268°
2026-04-30 22:05 53.73197 -4.50191 24564 ft 399 kts 268°
2026-04-30 22:05 53.73357 -4.54854 24143 ft 397 kts 268°
2026-04-30 22:05 53.73515 -4.59500 23683 ft 396 kts 268°
2026-04-30 22:06 53.73671 -4.64129 23195 ft 394 kts 268°
2026-04-30 22:06 53.73978 -4.73298 22310 ft 389 kts 268°
2026-04-30 22:06 53.74126 -4.77844 21866 ft 386 kts 268°
2026-04-30 22:07 53.74271 -4.82352 21443 ft 383 kts 267°
2026-04-30 22:07 53.74417 -4.86835 21021 ft 381 kts 267°
2026-04-30 22:07 53.74564 -4.91288 20601 ft 379 kts 267°
2026-04-30 22:07 53.74711 -4.95716 20186 ft 377 kts 267°
2026-04-30 22:08 53.74856 -5.00124 19777 ft 375 kts 267°
2026-04-30 22:08 53.74998 -5.04505 19371 ft 372 kts 267°
2026-04-30 22:08 53.75136 -5.08865 18972 ft 371 kts 267°
2026-04-30 22:08 53.75134 -5.13178 18576 ft 363 kts 258°
2026-04-30 22:09 53.74687 -5.17319 18135 ft 354 kts 247°
2026-04-30 22:09 53.73913 -5.21240 17711 ft 350 kts 245°
2026-04-30 22:09 53.73105 -5.25102 17312 ft 348 kts 244°
2026-04-30 22:09 53.72302 -5.28943 16900 ft 345 kts 245°
2026-04-30 22:10 53.71514 -5.32755 16497 ft 343 kts 245°
2026-04-30 22:10 53.70737 -5.36551 16111 ft 341 kts 245°
2026-04-30 22:10 53.69980 -5.40272 15732 ft 339 kts 245°
2026-04-30 22:10 53.69216 -5.44018 15351 ft 337 kts 245°
2026-04-30 22:11 53.67742 -5.51484 14578 ft 336 kts 249°
2026-04-30 22:11 53.67210 -5.55323 14204 ft 336 kts 252°
2026-04-30 22:11 53.66738 -5.59179 13805 ft 335 kts 253°
2026-04-30 22:12 53.66270 -5.63022 13382 ft 334 kts 252°
2026-04-30 22:12 53.65789 -5.66844 12983 ft 332 kts 252°
2026-04-30 22:12 53.65297 -5.70630 12595 ft 330 kts 252°
2026-04-30 22:12 53.64801 -5.74389 12218 ft 327 kts 252°
2026-04-30 22:13 53.64307 -5.78118 11843 ft 325 kts 252°
2026-04-30 22:13 53.63813 -5.81828 11475 ft 323 kts 252°
2026-04-30 22:13 53.63338 -5.85510 11177 ft 320 kts 253°
2026-04-30 22:13 53.62927 -5.89166 10860 ft 317 kts 254°
2026-04-30 22:14 53.62541 -5.92766 10742 ft 307 kts 254°
2026-04-30 22:14 53.62170 -5.96254 10605 ft 298 kts 254°
2026-04-30 22:14 53.61805 -5.99648 10480 ft 290 kts 254°
2026-04-30 22:14 53.61447 -6.02939 10356 ft 282 kts 253°
2026-04-30 22:15 53.61095 -6.06144 10246 ft 274 kts 253°
2026-04-30 22:15 53.60751 -6.09254 10129 ft 267 kts 253°
2026-04-30 22:15 53.60410 -6.12310 9879 ft 265 kts 253°
2026-04-30 22:15 53.60068 -6.15354 9608 ft 264 kts 253°
2026-04-30 22:16 53.59728 -6.18378 9340 ft 262 kts 253°
2026-04-30 22:16 53.59390 -6.21384 9077 ft 261 kts 253°
2026-04-30 22:17 53.58376 -6.30405 8187 ft 261 kts 253°
2026-04-30 22:17 53.58034 -6.33424 7863 ft 263 kts 253°
2026-04-30 22:17 53.57344 -6.39478 7298 ft 263 kts 253°
2026-04-30 22:18 53.57004 -6.42472 7073 ft 257 kts 253°
2026-04-30 22:18 53.56360 -6.48122 6614 ft 237 kts 253°
2026-04-30 22:19 53.55760 -6.53352 6173 ft 218 kts 252°
2026-04-30 22:19 53.55477 -6.55800 6031 ft 209 kts 252°
2026-04-30 22:19 53.54912 -6.60634 5867 ft 210 kts 252°
2026-04-30 22:20 53.54631 -6.63046 5764 ft 210 kts 252°
2026-04-30 22:20 53.53212 -6.66765 5448 ft 189 kts 195°
2026-04-30 22:20 53.51935 -6.67250 5252 ft 189 kts 182°
2026-04-30 22:21 53.50628 -6.67456 5093 ft 186 kts 181°
2026-04-30 22:21 53.49355 -6.67641 4929 ft 182 kts 180°
2026-04-30 22:21 53.48102 -6.67779 4728 ft 178 kts 173°
2026-04-30 22:21 53.46963 -6.67114 4538 ft 173 kts 148°
2026-04-30 22:22 53.46183 -6.65652 4492 ft 170 kts 112°
2026-04-30 22:22 53.45926 -6.63695 4329 ft 178 kts 108°
2026-04-30 22:22 53.45699 -6.61629 4129 ft 178 kts 105°
2026-04-30 22:22 53.45539 -6.59587 3899 ft 176 kts 104°
2026-04-30 22:23 53.45409 -6.57571 3657 ft 172 kts 103°
2026-04-30 22:23 53.45289 -6.55585 3442 ft 170 kts 103°
2026-04-30 22:23 53.45174 -6.53633 3216 ft 171 kts 104°
2026-04-30 22:23 53.45064 -6.51701 2986 ft 159 kts 104°
2026-04-30 22:24 53.44965 -6.49945 2809 ft 142 kts 104°
2026-04-30 22:24 53.44872 -6.48347 2603 ft 135 kts 105°
2026-04-30 22:24 53.44778 -6.46768 2426 ft 137 kts 104°
2026-04-30 22:24 53.44684 -6.45156 2248 ft 139 kts 104°
2026-04-30 22:25 53.44592 -6.43548 2049 ft 138 kts 104°
2026-04-30 22:25 53.44501 -6.41952 1867 ft 138 kts 104°
2026-04-30 22:25 53.44410 -6.40347 1678 ft 139 kts 103°
2026-04-30 22:25 53.44347 -6.39252 1556 ft 140 kts 103°
2026-04-30 22:26 53.44162 -6.35989 1171 ft 140 kts 100°
2026-04-30 22:26 53.44069 -6.34329 978 ft 144 kts 98°
2026-04-30 22:26 53.43974 -6.32644 770 ft 146 kts 97°
2026-04-30 22:27 53.43879 -6.30942 590 ft 147 kts 95°
2026-04-30 22:27 53.43782 -6.29209 387 ft 150 kts 94°
2026-04-30 22:27 53.43602 -6.25965 220 ft 113 kts 94°
2026-04-30 22:28 53.43529 -6.24667 216 ft 20 kts 95°
2026-04-30 22:28 53.43477 -6.24550 216 ft 13 kts 179°
2026-04-30 22:29 53.43366 -6.24828 212 ft 12 kts 276°
2026-04-30 22:29 53.43374 -6.24969 219 ft 12 kts 276°
2026-04-30 22:30 53.43406 -6.25584 210 ft 13 kts 261°
2026-04-30 22:31 53.43196 -6.25505 210 ft 12 kts 117°
2026-04-30 22:32 53.43224 -6.25118 212 ft 11 kts 96°
2026-04-30 22:32 53.43211 -6.24906 217 ft 7 kts 103°
2026-04-30 22:33 53.43114 -6.24893 210 ft 2 kts 185°
2026-04-30 22:33 53.43104 -6.24895 210 ft 0 kts 185°